MDT,Max TemperatureF,Mean TemperatureF,Min TemperatureF,Max Dew PointF,MeanDew PointF,Min DewpointF,Max Humidity, Mean Humidity, Min Humidity, Max Sea Level PressureIn, Mean Sea Level PressureIn, Min Sea Level PressureIn, Max VisibilityMiles, Mean VisibilityMiles, Min VisibilityMiles, Max Wind SpeedMPH, Mean Wind SpeedMPH, Max Gust SpeedMPH,PrecipitationIn, CloudCover, Events, WindDirDegrees
2012-10-1,69,54,39,36,31,27,75,44,21,30.40,30.31,30.24,10,10,10,18,7,22,0.00,0,,212
2012-10-2,73,56,39,32,27,23,65,38,16,30.24,30.15,30.04,10,10,10,18,10,23,0.00,0,,153
2012-10-3,71,55,39,30,24,7,61,35,11,30.25,30.08,30.01,10,10,4,28,9,34,0.00,1,,303
2012-10-4,60,42,23,27,21,18,93,49,19,30.26,30.16,30.03,10,10,9,15,5,22,0.00,0,,293
2012-10-5,50,42,32,21,16,10,56,38,22,30.19,30.12,30.03,10,10,10,16,7,24,0.00,1,,336
2012-10-6,44,32,21,21,14,9,80,49,23,30.28,30.19,30.11,10,10,10,15,4,20,0.00,0,,327
2012-10-7,50,34,19,10,7,3,63,35,15,30.22,30.17,30.13,10,10,10,15,8,22,0.00,0,,144
2012-10-8,64,44,24,12,7,3,46,26,11,30.16,30.07,29.98,10,10,9,20,11,28,0.00,0,,153
2012-10-9,66,48,30,19,14,9,44,27,14,30.13,30.07,30.03,10,10,10,24,8,33,0.00,0,,240
2012-10-10,69,50,32,27,19,12,44,31,14,30.20,30.13,30.06,10,10,8,21,9,24,0.00,0,,142
2012-10-11,66,54,41,30,27,25,53,36,23,30.17,30.12,30.09,10,10,10,15,7,18,0.00,2,,135
2012-10-12,57,48,39,45,34,27,93,62,33,30.11,30.08,30.00,10,10,6,21,8,29,0.01,3,Thunderstorm,150
2012-10-13,44,40,37,39,37,34,93,86,76,30.29,30.14,30.05,10,9,3,10,4,,0.00,8,,41
2012-10-14,57,49,41,39,36,32,93,67,38,30.41,30.34,30.30,10,10,10,12,3,16,0.00,4,,343
2012-10-15,62,48,33,34,29,25,87,59,24,30.31,30.19,30.07,10,10,10,16,9,21,0.00,0,,169
2012-10-16,64,50,35,41,32,28,81,58,28,30.13,29.96,29.73,10,10,6,44,9,54,0.04,3,Thunderstorm,214
2012-10-17,50,40,30,28,14,7,65,37,19,30.19,30.04,29.90,10,10,10,36,15,44,0.03,0,,259
2012-10-18,53,38,24,19,14,10,69,39,19,30.31,30.25,30.19,10,10,10,17,5,23,0.00,0,,210
2012-10-19,62,45,28,25,20,18,64,40,19,30.24,30.14,30.04,10,10,8,17,10,24,0.00,0,,66
2012-10-20,71,52,33,25,21,18,60,34,14,30.04,29.92,29.81,10,10,10,25,10,31,0.00,2,,103
2012-10-21,68,50,33,27,21,19,56,33,16,29.93,29.89,29.84,10,10,10,21,7,26,0.00,0,,123
2012-10-22,46,45,44,27,25,23,46,44,43,29.92,29.92,29.91,10,10,10,10,7,,0.00,7,,87
2012-10-23,,,,,,,,,,,,,,,,,,,,,,
2012-10-24,,,,,,,,,,,,,,,,,,,,,,
2012-10-25,,,,,,,,,,,,,,,,,,,,,,
2012-10-26,,,,,,,,,,,,,,,,,,,,,,
2012-10-27,,,,,,,,,,,,,,,,,,,,,,
2012-10-28,,,,,,,,,,,,,,,,,,,,,,
2012-10-29,,,,,,,,,,,,,,,,,,,,,,
2012-10-30,,,,,,,,,,,,,,,,,,,,,,
2012-10-31,,,,,,,,,,,,,,,,,,,,,,